User: anonymous   Login
Location: Alfortville
(48.8058°N, 2.4204°E)
Time: 03:27:19
(UTC+00:00)
Language:

deb HAPS - Orbit

View from above orbital plane
View from above orbital plane
View from above satellite
View from above satellite

Ground track
Ground track

The orbit data is extracted from the following two-line orbital elements,

1 24529U 94029WD  23027.72135806  .00002880  00000-0  32274-3 0  9991
2 24529  81.9776 286.7370 0122948   1.9744  61.9525 14.81118803 68722
Epoch (UTC): 27 January 2023 17:18:45
Eccentricity: 0.0122948
inclination: 81.9776°
perigee height: 539 km
apogee height: 712 km
right ascension of ascending node: 286.7370°
argument of perigee: 1.9744°
revolutions per day: 14.81118803
mean anomaly at epoch: 61.9525°
orbit number at epoch: 6872

The dashed part of the orbit path shows where the satellite is in the earth's shadow,  

DLR